Simultaneous Nadir Overpasses (SNOs) Predictions

Prediction of SNOs between NOAA-20 and METOP-B Satellite Orbit:

Table of predicted SNOs for the next 14.0 days since TLE Epoch: 9/20/2019
Index Date (NOAA-20) Time (NOAA-20) Lat,Lon (NOAA-20) SZA (NOAA-20 ) Date (METOP-B) Time (METOP-B) Lat,Lon (METOP-B) SZA (METOP-B ) Distance(km) Time Diff (sec)
1 09/22/2019 12:59:53 73.44, -24.71 73.22 09/22/2019 13:01:00 73.38, -22.24 73.06 79.03 67
2 09/22/2019 13:50:35 -73.34, 142.84 106.88 09/22/2019 13:51:44 -73.29, 144.89 107.02 65.83 69
3 09/22/2019 14:41:17 73.15, -49.43 72.93 09/22/2019 14:42:28 73.05, -48.29 72.78 38.25 71
4 09/22/2019 15:31:59 -73.04, 118.11 107.18 09/22/2019 15:33:11 -73.02, 118.95 107.25 27.52 72
5 09/22/2019 16:22:41 72.85, -74.16 72.63 09/22/2019 16:23:54 72.83, -74.10 72.60 2.80 73
6 09/22/2019 17:13:25 -72.85, 93.16 107.36 09/22/2019 17:14:36 -72.84, 93.25 107.38 3.00 71
7 09/22/2019 18:04:10 72.80, -99.44 72.61 09/22/2019 18:05:16 72.81, -99.49 72.61 1.85 66
8 09/22/2019 18:54:54 -72.80, 67.88 107.38 09/22/2019 18:55:58 -72.82, 67.86 107.37 2.32 64
9 09/22/2019 19:45:40 72.81,-124.82 72.64 09/22/2019 19:46:38 72.79,-124.87 72.61 2.87 58
10 09/22/2019 20:36:24 -72.80, 42.50 107.35 09/22/2019 20:37:20 -72.80, 42.48 107.37 0.93 56
11 09/22/2019 21:27:10 72.81,-150.20 72.67 09/22/2019 21:27:59 72.81,-150.15 72.67 1.65 49
12 09/22/2019 22:17:54 -72.81, 17.12 107.32 09/22/2019 22:18:41 -72.83, 17.20 107.31 3.43 47
13 09/22/2019 23:08:40 72.81,-175.58 72.70 09/22/2019 23:09:21 72.79,-175.54 72.67 2.74 41
14 09/22/2019 23:59:24 -72.81, -8.27 107.29 09/23/2019 00:00:03 -72.81, -8.19 107.30 2.66 39
15 09/23/2019 00:50:09 72.77, 159.14 72.68 09/23/2019 00:50:43 72.77, 159.07 72.68 2.17 34
16 09/23/2019 01:40:53 -72.76, -33.54 107.31 09/23/2019 01:41:25 -72.78, -33.57 107.30 2.31 32
17 09/23/2019 02:31:39 72.77, 133.76 72.71 09/23/2019 02:32:05 72.75, 133.69 72.69 3.31 26
18 09/23/2019 03:22:23 -72.77, -58.92 107.28 09/23/2019 03:22:47 -72.76, -58.96 107.29 1.32 24
19 09/23/2019 04:13:09 72.77, 108.37 72.74 09/23/2019 04:13:26 72.78, 108.41 72.74 1.19 17
20 09/23/2019 05:03:53 -72.77, -84.31 107.25 09/23/2019 05:04:08 -72.79, -84.24 107.24 3.05 15
21 09/23/2019 05:54:38 72.78, 82.99 72.77 09/23/2019 05:54:47 72.75, 83.02 72.75 2.79 9
22 09/23/2019 06:45:22 -72.78,-109.69 107.22 09/23/2019 06:45:29 -72.77,-109.62 107.23 2.36 7
23 09/23/2019 07:36:07 72.73, 57.71 72.75 09/23/2019 07:36:09 72.73, 57.64 72.75 2.51 2
24 09/23/2019 08:26:51 -72.73,-134.97 107.24 09/23/2019 08:26:51 -72.75,-135.01 107.22 2.35 0
25 09/23/2019 09:17:37 72.73, 32.33 72.78 09/23/2019 09:17:30 72.76, 32.36 72.81 3.07 7
26 09/23/2019 10:08:21 -72.73,-160.35 107.21 09/23/2019 10:08:13 -72.72,-160.39 107.22 1.70 8
27 09/23/2019 10:59:07 72.74, 6.95 72.81 09/23/2019 10:58:52 72.74, 6.97 72.81 0.78 15
28 09/23/2019 11:49:51 -72.74, 174.27 107.18 09/23/2019 11:49:34 -72.75, 174.33 107.16 2.68 17
29 09/23/2019 12:40:37 72.74, -18.43 72.84 09/23/2019 12:40:14 72.72, -18.41 72.82 2.91 23
30 09/23/2019 13:31:21 -72.74, 148.89 107.15 09/23/2019 13:30:56 -72.73, 148.94 107.16 2.10 25
31 09/23/2019 14:22:06 72.70, -43.71 72.82 09/23/2019 14:21:36 72.69, -43.80 72.83 2.87 30
32 09/23/2019 15:12:50 -72.69, 123.61 107.17 09/23/2019 15:12:18 -72.71, 123.56 107.15 2.44 32
33 09/23/2019 16:03:36 72.70, -69.09 72.85 09/23/2019 16:02:57 72.72, -69.08 72.88 2.75 39
34 09/23/2019 16:54:20 -72.70, 98.23 107.14 09/23/2019 16:53:40 -72.69, 98.17 107.14 2.07 40
35 09/23/2019 17:45:06 72.70, -94.48 72.88 09/23/2019 17:44:19 72.70, -94.46 72.89 0.46 47
36 09/23/2019 18:35:50 -72.70, 72.84 107.11 09/23/2019 18:35:01 -72.72, 72.89 107.09 2.33 49
37 09/23/2019 19:26:36 72.71,-119.86 72.92 09/23/2019 19:25:41 72.68,-119.85 72.90 3.10 55
38 09/23/2019 20:17:20 -72.71, 47.46 107.08 09/23/2019 20:16:23 -72.69, 47.51 107.08 1.91 57
39 09/23/2019 21:08:05 72.66,-145.14 72.89 09/23/2019 21:07:03 72.66,-145.23 72.90 3.23 62
40 09/23/2019 21:58:49 -72.66, 22.18 107.10 09/23/2019 21:57:45 -72.67, 22.12 107.07 2.57 64
41 09/23/2019 22:49:35 72.66,-170.52 72.92 09/23/2019 22:48:24 72.69,-170.52 72.96 2.45 71
42 09/23/2019 23:40:19 -72.66, -3.20 107.07 09/23/2019 23:39:07 -72.65, -3.26 107.07 2.43 72
43 09/24/2019 00:31:02 72.52, 164.41 72.79 09/24/2019 00:29:49 72.51, 163.79 72.82 20.67 73
44 09/24/2019 01:21:45 -72.46, -28.17 107.25 09/24/2019 01:20:32 -72.48, -28.95 107.20 26.29 73
45 09/24/2019 02:12:26 72.21, 139.63 72.50 09/24/2019 02:11:16 72.23, 137.90 72.59 58.82 70
46 09/24/2019 03:03:09 -72.16, -52.95 107.55 09/24/2019 03:02:00 -72.15, -54.94 107.48 67.65 69




NCC Satellite Simultaneous Nadir Overpasses (SNOs) Prediction Service
